Regional Weather Roundup
Issued by NWS

Home | Current Version | Previous Version | Graphics & Text | Print | Product List | Glossary On
Versions: 1 2 3 4 5 6 7 8 9 10 11 12 13 14 15 16 17 18 19 20 21 22 23 24 25 26 27 28 29 30 31 32 33 34 35 36 37 38 39 40 41 42 43 44 45 46 47 48 49 50
000
ASUS43 KFSD 020102
RWRSD

WEATHER ROUNDUP FOR SOUTH DAKOTA
NATIONAL WEATHER SERVICE SIOUX FALLS SD
700 PM CST SUN MAR 01 2015

NOTE: "FAIR" INDICATES FEW OR NO CLOUDS BELOW 12,000 FEET WITH NO
SIGNIFICANT WEATHER AND/OR OBSTRUCTIONS TO VISIBILITY.


SDZ001>005-009-010-012>017-020200-
NORTHWEST AND NORTH CENTRAL SOUTH DAKOTA

CITY           SKY/WX    TMP DP  RH WIND       PRES   REMARKS
BUFFALO          N/A     20   9  62 NW7       30.20S WCI  11
FAITH            N/A     19   9  65 MISG      30.30R
MOBRIDGE       MOCLDY    17  11  77 N5        30.33R WCI  10
$$

SDZ012>016-024>037-041>051-057-063-072>074-020200-
SOUTHWEST AND SOUTH CENTRAL SOUTH DAKOTA

CITY           SKY/WX    TMP DP  RH WIND       PRES   REMARKS
RAPID CTY ARPT CLEAR     19   9  65 N8        30.29R WCI   9
PIERRE         MOCLDY    23   8  52 NW9       30.35R WCI  13
CUSTER         CLEAR     18   5  57 S6        30.15R WCI  10
ELLSWORTH AFB  CLEAR     22   9  57 N6        30.28R WCI  15
PHILIP         CLEAR     22   7  52 N7        30.34R WCI  13
PINE RIDGE     CLEAR     25   8  48 E8        30.29R WCI  16
WINNER         FAIR      26   3  37 N7        30.35R WCI  18
$$

SDZ004>011-016>023-039-040-020200-
NORTHEAST SOUTH DAKOTA

CITY           SKY/WX    TMP DP  RH WIND       PRES   REMARKS
ABERDEEN       CLEAR     19  11  70 N8        30.38R WCI   9
WATERTOWN      CLOUDY    20  13  74 NW8       30.33R WCI  10
SISSETON         N/A     20  12  71 NW12      30.33R WCI   8
$$

SDZ017-020-022-023-036>040-048>070-020200-
SOUTHEAST SOUTH DAKOTA

CITY           SKY/WX    TMP DP  RH WIND       PRES   REMARKS
SIOUX FALLS    CLEAR     22  14  71 NW8       30.37R WCI  12
HURON          CLEAR     20  14  77 CALM      30.39R
MITCHELL       CLEAR     23  11  60 N7        30.39R WCI  15
YANKTON        CLEAR     28   9  43 N6        30.40R WCI  22
$$

ABBREVIATIONS USED IN REMARKS
   TC - TEMPERATURE IN CELSIUS
  WCI - WIND CHILL INDEX
   HX - HEAT INDEX
  VSB - VISIBILITY




USA.gov is the U.S. government's official web portal to all federal, state and local government web resources and services.